Regional Weather Roundup
Issued by NWS

Home | Current Version | Previous Version | Text Only | Print | Product List | Glossary On
Versions: 1 2 3 4 5 6 7 8 9 10 11 12 13 14 15 16 17 18 19 20 21 22 23 24 25 26 27 28 29 30 31 32 33 34 35 36 37 38 39 40 41 42 43 44 45 46 47 48 49 50
000
ASUS43 KMPX 241910
RWRMN
WEATHER ROUNDUP FOR MINNESOTA
NATIONAL WEATHER SERVICE TWIN CITIES/CHANHASSEN MN
200 PM CDT SAT SEP 24 2016


NOTE: "FAIR" INDICATES FEW OR NO CLOUDS BELOW 12,000 FEET WITH NO
SIGNIFICANT WEATHER AND/OR OBSTRUCTIONS TO VISIBILITY. N/A MEANS
CURRENT SKY AND/OR WEATHER CONDITIONS ARE NOT AVAILABLE.

MNZ060>063-068>070-242000-
   Twin Cities Metro

CITY           SKY/WX    TMP DP  RH WIND       PRES   REMARKS
TWIN CITIES    CLOUDY    70  63  78 SE15      30.04F
ST PAUL        CLOUDY    67  63  87 SE13      30.05F
CRYSTAL        CLOUDY    68  61  78 E10       30.03F
BLAINE         CLOUDY    70  66  88 SE12G21   30.06F
LAKEVILLE      CLOUDY    70  64  83 E14G21    30.03F
EDEN PRAIRIE   PTSUNNY   72  64  76 SE16      30.02F
LAKEVILLE      CLOUDY    70  64  83 E14G21    30.03F
SOUTH ST PAUL  CLOUDY    68  64  87 SE6       30.05F
LAKE ELMO      CLOUDY    66  63  88 SE10G20   30.09F
$$
MNZ001>005-007-008-013>017-022>024-027-028-242000-
   Northwest Minnesota

CITY           SKY/WX    TMP DP  RH WIND       PRES   REMARKS
BEMIDJI        CLOUDY    65  61  86 SE14      29.98F
HALLOCK        CLOUDY    73  68  83 S16G22    29.84F
ROSEAU         MOSUNNY   70  64  83 SE16      29.92F
WARROAD        CLOUDY    66  63  88 SE16      29.94F
THIEF RVR FALL MOSUNNY   75  65  70 SE18      29.89F
CROOKSTON      MOSUNNY   75  66  73 S17G23    29.85F
FOSSTON        SUNNY     72  61  68 SE13G22   29.92F
DETROIT LAKES  CLOUDY    70  63  78 SE18      29.93F
MOORHEAD       CLOUDY    79  64  61 S23G29    29.85F
PARK RAPIDS    CLOUDY    66  60  81 SE15G24   29.98F
MAHNOMEN       FAIR      71  63  76 SE22G28   29.90F
$$
MNZ006-009>011-018-025>026-242000-
   North Central Minnesota

CITY           SKY/WX    TMP DP  RH WIND       PRES   REMARKS
BAUDETTE       CLOUDY    64  60  87 SE12      29.98F
FLAG ISLAND    CLOUDY    61  57  88 SE7       29.96F
INTL FALLS     CLOUDY    66  59  78 SE10      30.03F
WASKISH        CLOUDY    64  61  88 SE13G18   30.00F
BIG FORK       CLOUDY    64  57  77 SE10G17   30.04F
LONGVILLE      CLOUDY    63  61  94 SE9       30.03F
GRAND RAPIDS   CLOUDY    63  59  87 SE10      30.07F
CRANE LAKE     CLOUDY    64  57  77 S3        30.09F
ORR            CLOUDY    64  55  72 SE9       30.05F
COOK           CLOUDY    63  57  82 SE12      30.08F
WALKER         CLOUDY    63  60  90 SE10G17   30.00F
$$
MNZ012-019>021-037-242000-
   Northeast Minnesota

CITY           SKY/WX    TMP DP  RH WIND       PRES   REMARKS
DULUTH         CLOUDY    60  59  96 E9        30.11F FOG
ELY            CLOUDY    64  55  72 SE8       30.12F
HIBBING        CLOUDY    61  58  90 SE15      30.08F
EVELETH        CLOUDY    63  58  83 SE12      30.11F
DULUTH HARBOR  CLOUDY    61  57  88 NE14      30.11F
TWO HARBORS    CLOUDY    61  55  82 E9        30.12F HAZE
SILVER BAY     CLOUDY    61  55  82 NE8       30.14F
GRAND MARAIS     N/A     62  57  83 NE10      30.18F
G MARAIS ARPRT PTSUNNY   59  50  72 E7        30.20F
$$
MNZ029>031-032-039>041-046>048-054>057-064-242000-
   West Central Minnesota

CITY           SKY/WX    TMP DP  RH WIND       PRES   REMARKS
FERGUS FALLS   MOSUNNY   75  64  69 SE18G25   29.89F
WHEATON        CLOUDY    81  70  69 SE18G26   29.88S
MORRIS         PTSUNNY   79  66  65 SE22G28   29.88F
ALEXANDRIA     CLOUDY    68  65  90 SE21G28   29.96F
ELBOW LAKE     FAIR      73  65  77 SE20G26   29.90F
WADENA         CLOUDY    64  63  94 SE17      29.96F
GLENWOOD       MOSUNNY   72  66  83 SE18      29.96F
APPLETON       CLOUDY    79  66  65 SE14G24   29.89S
BENSON         PTSUNNY   79  64  61 S15G24    29.91F
ORTONVILLE     CLOUDY    77  66  69 SE10G21   29.88S
MADISON          N/A     82  66  57 SE16G23   29.88F
WILLMAR        FAIR      75  66  73 SE18G24   29.96F
$$
MNZ033>034-036-042>043-049>051-058-059-242000-
   Central Minnesota

CITY           SKY/WX    TMP DP  RH WIND       PRES   REMARKS
ST CLOUD       CLOUDY    66  64  93 SE10      30.02F
SAUK CENTRE    CLOUDY    66  64  92 E16       29.98F FOG
PAYNESVILLE    PTSUNNY   70  69  95 E13G18    29.98F
AITKIN         CLOUDY    64  57  77 SE8       30.04F
PINE RIVER     CLOUDY    63  63 100 SE13G18   30.04F
BRAINERD       CLOUDY    64  61  90 SE7G16    30.02F FOG
STAPLES        CLOUDY    63  61  94 SE9G18    29.99F FOG
LONG PRAIRIE   CLOUDY    63  63 100 E12       29.99F FOG
LITTLE FALLS   CLOUDY    63  61  94 SE13G20   30.01F FOG
LITCHFIELD     CLOUDY    73  68  83 SE17      29.99F
BUFFALO        CLOUDY    69  63  81 E13       30.03F
MAPLE LAKE     CLOUDY    69  65  88 SE7       30.03F
HUTCHINSON     MOSUNNY   77  68  72 E18       29.98F
$$
MNZ037-044-045-052-053-242000-
   East Central Minnesota

CITY           SKY/WX    TMP DP  RH WIND       PRES   REMARKS
PRINCETON      CLOUDY    66  63  88 E13G18    30.04F
MORA           CLOUDY    64  61  88 SE7       30.08F
CAMBRIDGE      CLOUDY    68  61  77 SE6       30.04F
MOOSE LAKE     CLOUDY    64  59  82 SE7       30.06F
HINCKLEY       CLOUDY    64  61  88 SE8       30.07F
CLOQUET        CLOUDY    61  55  82 E10       30.09F FOG
MCGREGOR       CLOUDY    63  59  88 SE12      30.07F
$$
MNZ071>073-080-081-089-090-097-098-242000-
   Southwest Minnesota

CITY           SKY/WX    TMP DP  RH WIND       PRES   REMARKS
MONTEVIDEO     CLOUDY    81  66  61 S18G25    29.92F
GRANITE FALLS  CLOUDY    83  68  60 SE16G24   29.92F
CANBY          CLOUDY    80  68  66 SE16G24   29.90S
MARSHALL       CLOUDY    81  68  64 S20       29.90F
REDWOOD FALLS  MOSUNNY   81  66  60 SE21G26   29.93F
OLIVIA         MOSUNNY   77  64  65 SE16G24   29.94F
PIPESTONE      PTSUNNY   82  66  57 S12G18    29.89F
WINDOM         MOSUNNY   82  66  57 SE17G25   29.94F
WORTHINGTON    CLOUDY    83  69  62 SE21      29.92F
JACKSON        SUNNY     82  64  54 SE17G28   29.96F
TRACY          MOSUNNY   82  70  66 S16G25    29.92F
SLAYTON        MOSUNNY   82  68  61 SE17G26   29.92F
$$
MNZ065>067-074>077-082>085-091>093-242000-
   South Central Minnesota

CITY           SKY/WX    TMP DP  RH WIND       PRES   REMARKS
MANKATO        SUNNY     77  66  68 SE20      29.98F
NEW ULM        SUNNY     79  66  65 SE17G23   29.96F
ST JAMES       SUNNY     81  66  61 SE18G26   29.96F
FAIRMONT       SUNNY     81  67  62 SE20G30   29.96F
GLENCOE        MOSUNNY   78  69  72 E15       29.99F
FARIBAULT      MOSUNNY   77  66  69 E13G20    30.03F
OWATONNA       SUNNY     77  64  65 SE15      30.03F
WASECA         SUNNY     77  66  69 SE16G23   30.03F
ALBERT LEA     MOSUNNY   75  66  73 SE13G20   30.03F
$$
MNZ078>079-086>088-094>096-242000-
   Southeast Minnesota

CITY           SKY/WX    TMP DP  RH WIND       PRES   REMARKS
ROCHESTER      CLOUDY    69  65  86 SE15      30.08F
RED WING       CLOUDY    68  63  83 SE14      30.07F
STANTON        CLOUDY    73  64  73 SE12G17   30.04F
DODGE CENTER   PTSUNNY   73  64  73 SE16G23   30.06F
WINONA         CLOUDY    70  63  78 S5        30.11F
AUSTIN         MOSUNNY   73  64  73 SE16      30.05F
PRESTON        CLOUDY    66  62  86 SE13      30.11F HAZE
$$
ABBREVIATIONS USED IN REMARKS
   TC - TEMPERATURES IN CELSIUS
  WCI - WIND CHILL INDEX
   HX - HEAT INDEX
  VSB - VISIBILITY
$$




USA.gov is the U.S. government's official web portal to all federal, state and local government web resources and services.